Flag for Brazil Weather past 2 weeks in Santarém, Para, Brazil

Now
73 °F

Passing clouds.


Feels Like: 70 °F
Forecast: 75 / 90 °F
Wind: 2 mph from Southeast

Location: Santarem-Aeroporto

Current Time: Jul 31, 2014 at 5:01:42 AM

Latest Report: Jul 31, 2014 at 4:00 AM


Visibility: N/A

Pressure: 29.89 "Hg

Humidity: 94%

Dew point: 72 °F

Location of SantarémLocation

Historic Weather in Santarém — Graph

°F

Santarém temperature yesterday

Maximum temperature yesterday: 88 °F (at 3:00 PM)
Minimum temperature yesterday: 72 °F (at 4:00 AM)
Average temperature yesterday: 80 °F

Past Weeks' High & Low Weather Summary

 TemperatureHumidityPressure
High88 °F (Jul 19, 1:00 PM)100% (Jul 17, 9:00 PM)30.04 "Hg (Jul 17, 9:00 PM)
Low72 °F (Jul 18, 7:00 AM)62% (Jul 19, 2:00 PM)29.80 "Hg (Jul 25, 5:00 PM)
Average80 °F85%29.94 "Hg
* Reported Jul 16 4:00 AM — Jul 31 4:00 AM, Santarém, Weather by CustomWeather, © 2014

Note: Actual official high and low records may vary slightly from our data, if they occured in-between our weather recording intervals... More about our weather records

Advertising

Santarém weather history for previous 24 hours

 ConditionsComfort  
Time TempWeatherWind HumidityBarometerVisibility
4:00 AM
Jul 31
73 °FPassing clouds.2 mph94%29.89 "HgN/A
3:00 AM73 °FPassing clouds.No wind94%29.92 "HgN/A
2:00 AM75 °FPassing clouds.5 mph89%29.92 "HgN/A
1:00 AM75 °FPassing clouds.2 mph94%29.95 "HgN/A
12:00 AM77 °FPassing clouds.No wind89%29.95 "HgN/A
11:00 PM
Jul 30
77 °FThundershowers. Passing clouds.No wind94%N/AN/A
10:00 PM77 °FThundershowers. Passing clouds.No wind94%N/AN/A
8:00 PM77 °FPassing clouds.No wind94%29.89 "HgN/A
7:00 PM81 °FPassing clouds.No wind89%29.89 "HgN/A
6:00 PM86 °FPassing clouds.3 mph70%29.86 "HgN/A
5:00 PM88 °FPassing clouds.7 mph66%29.86 "HgN/A
4:00 PM88 °FPassing clouds.7 mph66%29.89 "HgN/A
3:00 PM88 °FPassing clouds.5 mph62%29.89 "HgN/A
2:00 PM86 °FScattered clouds.9 mph70%29.92 "HgN/A
1:00 PM86 °FPassing clouds.7 mph70%29.95 "HgN/A
12:00 PM86 °FPassing clouds.3 mph70%29.98 "HgN/A
11:00 AM86 °FPassing clouds.6 mph70%29.98 "HgN/A
10:00 AM86 °FPassing clouds.7 mph75%29.98 "HgN/A
9:00 AM82 °FPassing clouds.5 mph84%30.01 "HgN/A
8:00 AM75 °FPassing clouds.2 mph100%29.98 "HgN/A
7:00 AM72 °FPassing clouds.No wind100%29.95 "HgN/A
6:00 AM72 °FClear.No wind100%29.95 "Hg10 mi
5:00 AM72 °FClear.No wind100%29.92 "Hg10 mi
Weather by CustomWeather, © 2014

See weather overviewHow to use our weather pages